Other Surface Observations
Issued by NWS

Home | Current Version | Previous Version | Text Only | Print | Product List | Glossary On
Versions: 1 2 3 4 5 6 7 8 9 10 11 12 13 14 15 16 17 18 19 20 21 22 23 24 25 26 27 28 29 30 31 32 33 34 35 36 37 38 39 40 41 42 43 44 45 46 47 48 49 50
590
SXUS52 KTAE 010119
OSOTAE
OSOTAE
North Florida/South Alabama/Southwest Georgia Weather Roundup
National Weather Service Tallahassee Florida
900 PM EDT SUN APR 30 2017

Note: "fair" indicates few or no clouds below 12,000 feet with no
significant weather and/or obstructions to visibility.

!FLZ017-115-028-034-025-010200
...North Florida...

CITY           SKY/WX    TMP DP  RH WIND       PRES   REMARKS
TALLAHASSEE    CLOUDY    77  69  76 S3        30.03S
APALACHICOLA   CLOUDY    77  74  90 S14       30.00F
PERRY          CLOUDY    77  69  77 CALM      30.04S
CROSS CITY     CLOUDY    79  70  73 W6        30.04S
JACKSONVILLE   MOCLDY    76  70  82 SE20G25   30.07F
$$

!FLZ112-006-005-002-011-010200
...Florida Panhandle...

CITY           SKY/WX    TMP DP  RH WIND       PRES   REMARKS
MARIANNA       MOCLDY    79  70  74 SE6       30.00S
BONIFAY        NOT AVBL
PANAMA CITY NW CLOUDY    78  71  79 SE12      29.99S
TYNDALL AFB    MOCLDY    76  71  84 SE13      30.00R
TYND DRONE APT FAIR      76  72  88 SE10G30   30.00R
DE FUNIAK SPR  CLOUDY    76  71  84 SE9       30.00S
EGLIN AFB      CLOUDY    76  72  88 SE18      29.98S
DESTIN         CLOUDY    78  78 100 SE14G22   29.98R
HURLBURT       CLOUDY    75  72  88 E8G21     29.96S
CRESTVIEW      CLOUDY    77  71  82 S8        30.00S
PENSACOLA      CLOUDY    78  73  84 SE13      29.97R
$$

!ALZ063-066-010200
...South Alabama...

CITY           SKY/WX    TMP DP  RH WIND       PRES   REMARKS
DOTHAN         PTCLDY    78  69  73 S13       30.04R
OZARK CAIRNS   MOCLDY    78  69  73 SE9       30.00R
FT RUCKER HELI MOCLDY    79  69  72 S7        30.00R
RUCKER HELI 3  CLOUDY    78  69  74 S6        29.99R
RUCKER HELI 2  CLOUDY    78  69  72 S7        29.99R
FLORALA APT    CLOUDY    75  70  84 S7        30.00S
ANDALUSIA      CLOUDY    77  71  82 VRB3      29.99R
TROY           CLOUDY    78  70  76 S12G17    30.00R
EUFALA         FAIR      81  67  62 S8        29.98S
MOBILE         TSTM      74  71  91 SE26G43   29.88R
$$

!GAZ120>161-010200
...Southwest and South Central Georgia...

CITY           SKY/WX    TMP DP  RH WIND       PRES   REMARKS
THOMASVILLE    FAIR      79  70  73 CALM      30.04F
BAINBRIDGE     CLOUDY    79  68  69 S9        30.02F
MOODY AFB      CLOUDY    81  65  57 SW9       30.02S
VALDOSTA       MOCLDY    77  65  66 CALM      30.04S
MOULTRIE       CLOUDY    79  68  69 SW3       30.05S
BLAKELY        CLEAR     81  68  65 S5        30.01S
ALBANY         CLOUDY    80  66  62 S10       30.04S
TIFTON         FAIR      80  65  60 SW7       30.04S
FITZGERALD     CLOUDY    82  68  61 SW5       30.05S
CORDELE        FAIR      84  65  52 SW7       30.03F
AMERICUS       FAIR      79  61  53 S6        30.03S
HOMERVILLE     MOCLDY    81  72  74 SE6       30.05R
$$

!GMZ750-755-770-775-010200
...Coastal and Buoy Obs...

STATION/POSITION TIME  TEMP    WIND        PRES    VSBY  WAVE
                       AIR SEA DIR/SP/G                  HT/PER
                 (UTC) (F)     (DEG/KT/KT) (MB)    (MI)  (FT/S)
KEATON BEACH     0100   79     220/  5/  7 1016.5F
CEDAR KEY        0100   79     260/  3/  5 1017.5R
C TOWER          0100   76     180/ 16/ 18 1016.3S
APALACHICOLA BUO 0050   76 75  170/ 12/ 16 1016.0F         6/ 7
PANAMA CITY BUOY 0050   76 75  140/ 17/ 19 1013.8F         6/ 8
MOBILE BUOY      0050   77     130/ 19/ 25 1011.5S
ORANGE BCH AL BU 0050   76 75  110/ 16/ 19 1012.3F         7/ 8
$$




USA.gov is the U.S. government's official web portal to all federal, state and local government web resources and services.